Location: Albany
(35.0000°S, 118.0000°E)
Time: 18:39:43
(UTC-05:00)

Vanguard 3 - Visible Passes

Search period start: 20 December 2014 00:00
Search period end: 30 December 2014 00:00
Orbit: 508 x 3276 km, 33.3° (Epoch: 19 December)

Date Brightness Start Highest point End Pass type
(mag) Time Alt. Az. Time Alt. Az. Time Alt. Az.
20 Dec 10.0 07:26:18 10° W 07:46:40 85° N 08:03:03 10° E visible
20 Dec 9.5 09:44:07 10° W 10:03:18 66° NNW 10:08:42 45° NE visible
20 Dec 10.1 12:03:50 10° W 12:13:21 26° WNW 12:13:21 26° WNW visible
21 Dec 9.8 08:28:25 10° W 08:48:44 78° NNW 08:59:51 25° ENE visible
21 Dec 9.6 10:46:54 10° WSW 11:03:43 45° NW 11:04:31 45° NNW visible
22 Dec 10.1 07:13:16 10° W 07:33:24 84° N 07:50:31 10° ENE visible
22 Dec 9.6 09:30:45 10° WSW 09:50:04 61° NNW 09:55:42 44° NNE visible
22 Dec 10.3 11:50:52 10° W 12:00:21 24° WNW 12:00:21 24° WNW visible
23 Dec 9.9 08:15:13 10° W 08:35:26 74° NNW 08:46:55 26° ENE visible
23 Dec 9.8 10:33:36 10° W 10:50:24 41° NW 10:51:34 40° NNW visible
24 Dec 10.1 07:00:18 10° W 07:20:03 82° N 07:37:53 10° ENE visible
24 Dec 9.7 09:17:26 10° WSW 09:36:42 57° NNW 09:42:48 41° NNE visible
24 Dec 10.5 11:38:06 10° W 11:47:28 21° WNW 11:47:28 21° WNW visible
25 Dec 10.0 08:02:04 10° W 08:22:02 71° NNW 08:34:04 25° NE visible
25 Dec 10.0 10:20:24 10° W 10:36:57 37° NW 10:38:44 36° NNW visible
26 Dec 10.2 06:47:24 10° W 07:06:39 80° NNW 07:25:06 10° ENE visible
26 Dec 9.9 09:04:13 10° WSW 09:23:12 52° NNW 09:30:02 38° NNE visible
26 Dec 10.7 11:25:37 10° W 11:34:42 19° WNW 11:34:42 19° WNW visible
27 Dec 10.1 07:49:01 10° W 08:08:32 66° NNW 08:21:21 24° NE visible
27 Dec 10.2 10:07:21 10° W 10:23:24 33° NW 10:26:01 32° NNW visible
28 Dec 10.2 06:34:34 10° W 06:53:12 77° NNW 07:12:10 10° ENE visible
28 Dec 10.1 08:51:07 10° W 09:09:36 48° NW 09:17:22 33° NNE visible
28 Dec 10.9 11:13:37 10° W 11:22:03 16° NW 11:22:03 16° NW visible
29 Dec 10.2 07:36:02 10° W 07:54:57 62° NNW 08:08:45 21° NE visible
29 Dec 10.4 09:54:31 10° W 10:09:47 29° NW 10:13:26 27° NNW visible
